TimeGMT,TemperatureF,Dew PointF,Humidity,Sea Level PressureIn,VisibilityMPH,Wind Direction,Wind SpeedMPH,Gust SpeedMPH,PrecipitationIn,Events,Conditions,WindDirDegrees,DateUTC
12:50 AM,39.2,39.2,100,29.62,6.2,WNW,5.8,-,N/A,Fog,Shallow Fog,290,2012-10-29 00:50:00
1:50 AM,37.4,37.4,100,29.62,6.2,West,8.1,-,N/A,Fog,Shallow Fog,280,2012-10-29 01:50:00
2:50 AM,39,38,96,29.66,16,West,8.1,,,,Mostly Cloudy,280,2012-10-29 02:50:00
2:50 AM,39.2,39.2,100,29.65,6.2,West,8.1,-,N/A,,Mostly Cloudy,280,2012-10-29 02:50:00
3:50 AM,39.2,39.2,100,29.68,6.2,West,5.8,-,N/A,Rain,Light Rain,270,2012-10-29 03:50:00
4:50 AM,41.0,39.2,93,29.68,6.2,West,4.6,-,N/A,Rain,Light Rain,270,2012-10-29 04:50:00
5:50 AM,40,39,94,29.70,25,West,5.8,,,Rain,Light Rain,280,2012-10-29 05:50:00
5:50 AM,41.0,39.2,93,29.68,6.2,West,5.8,-,N/A,,Partly Cloudy,280,2012-10-29 05:50:00
6:50 AM,39.2,37.4,93,29.71,6.2,NNE,5.8,-,N/A,,Partly Cloudy,20,2012-10-29 06:50:00
7:50 AM,35.6,33.8,93,29.74,6.2,West,3.5,-,N/A,,Partly Cloudy,260,2012-10-29 07:50:00
8:50 AM,40,39,93,29.76,31,NW,2.3,,,,Partly Cloudy,320,2012-10-29 08:50:00
8:50 AM,39.2,39.2,100,29.74,6.2,NW,2.3,-,N/A,,Scattered Clouds,320,2012-10-29 08:50:00
9:50 AM,44.6,39.2,81,29.74,6.2,NNW,5.8,-,N/A,,Mostly Cloudy,330,2012-10-29 09:50:00
10:50 AM,46.4,39.2,76,29.74,6.2,WNW,4.6,-,N/A,,Scattered Clouds,300,2012-10-29 10:50:00
11:50 AM,47,39,66,29.77,25,WNW,5.8,,,,Partly Cloudy,300,2012-10-29 11:50:00
11:50 AM,48.2,39.2,71,29.74,6.2,WNW,5.8,-,N/A,,Mostly Cloudy,300,2012-10-29 11:50:00
12:50 PM,46.4,42.8,87,29.74,6.2,North,4.6,-,N/A,Rain,Light Rain Showers,360,2012-10-29 12:50:00
1:50 PM,46.4,42.8,87,29.74,6.2,North,2.3,-,N/A,,Mostly Cloudy,350,2012-10-29 13:50:00
2:50 PM,46,38,65,29.74,31,West,5.8,,,,Partly Cloudy,270,2012-10-29 14:50:00
2:50 PM,46.4,37.4,71,29.71,6.2,West,5.8,-,N/A,,Mostly Cloudy,270,2012-10-29 14:50:00
3:50 PM,44.6,35.6,71,29.71,6.2,WNW,8.1,-,N/A,,Mostly Cloudy,300,2012-10-29 15:50:00
4:50 PM,42.8,35.6,76,29.71,6.2,WNW,5.8,-,N/A,,Mostly Cloudy,300,2012-10-29 16:50:00
5:50 PM,42,35,67,29.73,31,West,5.8,,,,Partly Cloudy,280,2012-10-29 17:50:00
5:50 PM,41.0,35.6,81,29.71,6.2,West,5.8,-,N/A,,Mostly Cloudy,280,2012-10-29 17:50:00
6:50 PM,39.2,33.8,81,29.71,6.2,West,4.6,-,N/A,,Partly Cloudy,280,2012-10-29 18:50:00
7:50 PM,35.6,32.0,87,29.68,6.2,West,4.6,-,N/A,,Partly Cloudy,270,2012-10-29 19:50:00
8:50 PM,38,33,75,29.70,25,West,8.1,,,,Scattered Clouds,280,2012-10-29 20:50:00
8:50 PM,37.4,33.8,87,29.68,6.2,West,8.1,-,N/A,,Mostly Cloudy,280,2012-10-29 20:50:00
9:50 PM,37.4,32.0,81,29.68,-9999.0,West,10.4,-,N/A,,Clear,260,2012-10-29 21:50:00
10:50 PM,37.4,32.0,81,29.65,-9999.0,WSW,10.4,-,N/A,,Clear,240,2012-10-29 22:50:00
11:50 PM,35,31,80,29.65,31,WSW,8.1,,,,Scattered Clouds,250,2012-10-29 23:50:00
11:50 PM,35.6,32.0,87,29.62,-9999.0,WSW,8.1,-,N/A,,Clear,250,2012-10-29 23:50:00